SCP
0 0 0 0 0 0 0 0 0 0 0 0 0 0 0 0 0 0 0 0 0 0 0 0 0 0 0 0 0 0 0 0 0 0 0 0 0 0 0 0 0 0 0 0
0 0 0 0 0 0 0 0 0 0 0 0 0 0 0 0 0 0 0 0 0 0 0 0 0 0 0 0 0 0 0 0 0 0 0 0 0 0 0 0 0 0 0 0
0 0 0 0 0 0 0 0 0 0 0 0 0 0 0 0 0 0 0 0 0 0 0 0 0 0 0 0 0 0 0 0 0 0 0 0 0 0 0 0 0 0 0 0
0 0 0 0 0 0 0 0 0 0 0 0 0 0 0 0 0 0 0 0 0 0 0 0 0 0 0 0 0 0 0 0 0 0 0 0 0 0 0 0 0 0 0 0
0 0 0 0 0 0 0 0 0 0 0 0 0 0 0 0 0 0 0 0 0 0 0 0 0 0 0 0 0 0 0 0 0 0 0 0 0 0 0 0 0 0 0 0
0 0 0 0 0 0 0 0 0 0 0 0 0 0 0 0 0 0 0 0 0 0 0 0 0 0 0 0 0 0 0 0 0 0 0 0 0 0 0 0 0 0 0 0
0 0 0 0 0 0 0 0 0 0 0 0 0 0 0 0 0 0 0 0 0 0 0 0 0 0 0 0 0 0 0 0 0 0 0 0 0 0 0 0 0 0 0 0
0 0 0 0 0 0 0 0 0 0 0 0 0 0 0 0 0 0 0 0 0 0 0 0 0 0 0 0 0 0 0 0 0 0 0 0 0 0 0 0 0 0 0 0
0 0 0 0 0 0 0 0 0 0 0 0 0 0 0 0 0 0 0 0 0 0 0 0 0 0 0 0 0 0 0 0 0 0 0 0 0 0 0 0 0 0 0 0
0 0 0 0 0 0 0 0 0 0 0 0 0 0 0 0 0 0 0 0 0 0 0 0 0 0 0 0 0 0 0 0 0 0 0 0 0 0 0 0 0 0 0 0
0 0 0 0 0 0 0 0 0 0 0 0 0 0 0 0 0 0 0 0 0 0 0 0 0 0 0 0 0 0 0 0 0 0 0 0 0 0 0 0 0 0 0 0
0 0 0 0 0 0 0 0 0 0 0 0 0 0 0 0 0 0 0 0 0 0 0 0 0 0 0 0 0 0 0 0 0 0 0 0 0 0 0 0 0 0 0 0
0 0 0 0 0 0 0 0 0 0 0 0 0 0 0 0 0 0 0 0 0 0 0 0 0 0 0 0 0 0 0 0 0 0 0 0 0 0 0 0 0 0 0 0
0 0 0 0 0 0 0 0 0 0 0 0 0 0 0 0 0 0 0 0 0 0 0 0 0 0 0 0 0 0 0 0 0 0 0 0 0 0 0 0 0 0 0 0
0 0 0 0 0 0 0 0 0 0 0 0 0 0 0 0 0 0 0 0 0 0 0 0 0 0 -0 -0 -0 0 0 0 0 0 0 0 0 0 0 0 0 0 0 0
0 0 0 0 0 0 0 0 0 0 0 0 0 0 0 0 0 0 0 0 0 0 0 0 0 -0 -0 -0 -0 0 0 0 0 0 0 0 0 0 0 0 0 0 0 0
0 0 0 0 0 0 0 0 0 0 0 0 0 0 0 0 0 0 0 0 0 0 0 0 0 -0 -0 -0 -0 0 0 0 0 0 0 0 0 0 0 0 0 0 0 0
0 0 0 0 0 0 0 0 0 0 0 0 0 0 0 0 0 0 0 0 0 0 0 0 0 0 0 0 0 0 0 0 0 0 0 0 0 0 0 0 0 0 0 0
0 0 0 0 0 0 0 0 0 0 0 0 0 0 0 0 0 0 0 0 0 0 0 0 0 0 0 0 0 0 0 0 0 0 0 0 0 0 0 0 0 0 0 0
0 0 0 0 0 0 0 0 0 0 0 0 0 0 0 0 0 0 0 0 0 0 0 0 0 0 0 0 0 0 0 0 0 0 0 0 0 0 0 0 0 0 0 0
0 0 0 0 0 0 0 0 0 0 0 0 0 0 0 0 0 0 0 0 0 0 0 0 0 0 0 0 0 0 0 0 0 0 0 0 0 0 0 0 0 0 0 0
0 0 0 0 0 0 0 0 0 0 0 0 0 0 0 0 0 0 0 0 0 0 0 0 0 0 0 0 0 0 0 0 0 0 0 0 0 0 0 0 0 0 0 0
0 0 0 0 0 0 0 0 0 0 0 0 0 0 0 0 0 0 0 0 0 0 0 0 0 0 0 0 0 0 0 0 0 0 0 0 0 0 0 0 0 0 0 -0
0 0 0 0 0 0 0 0 0 0 0 0 0 0 0 0 0 0 0 0 0 0 0 0 0 0 0 0 0 0 0 0 0 0 0 0 0 0 0 0 0 0 -0 -0
0 0 0 0 0 0 0 0 0 0 0 0 0 0 0 0 0 0 0 0 0 0 0 0 0 0 0 0 0 0 0 0 0 0 0 0 0 0 0 0 0 0 0 0
0 0 0 0 0 0 0 0 0 0 0 0 0 0 0 0 0 0 0 0 0 0 0 0 0 0 0 0 0 0 0 -0 -0 -0 0 0 0 0 0 0 0 0 0 0
0 0 0 0 0 0 0 0 0 0 0 0 0 0 0 0 0 0 0 0 0 0 0 0 0 0 0 0 0 0 0 0 0 0 0 0 0 0 0 0 0 0 0 0
Wind_Speed
8 8 9 9 8 6 5 6 4 5 9 10 10 11 11 12 13 13 12 11 11 11 10 9 9 10 10 10 10 10 11 11 11 10 9 9 9 8 8 7 7 6 6 6
8 8 10 11 10 8 8 7 7 9 9 9 11 10 10 11 13 12 12 12 11 11 10 9 9 9 10 10 9 9 10 10 9 9 9 8 8 7 7 6 6 6 6 6
5 4 4 7 9 7 7 7 4 5 7 11 11 9 9 11 11 12 12 12 11 10 9 8 8 8 9 9 9 9 9 8 8 8 7 7 7 6 6 5 5 5 6 6
3 5 1 7 4 5 7 8 7 9 10 10 11 10 8 8 10 12 12 11 10 9 9 8 8 7 8 8 8 8 8 7 7 6 7 6 6 6 5 4 4 5 5 6
2 2 6 6 2 1 1 5 6 9 11 12 14 12 9 8 10 11 11 10 10 9 9 8 8 7 7 7 7 7 7 6 6 5 5 5 5 5 4 4 4 4 4 5
1 1 2 6 4 2 2 5 6 9 11 11 9 6 6 8 11 12 11 10 10 9 9 9 7 6 6 6 6 6 6 5 5 4 4 4 4 3 3 3 4 4 4 4
0 1 6 6 1 4 3 5 8 8 9 8 4 8 12 12 12 12 11 11 10 10 9 8 7 6 6 6 6 5 5 4 4 3 2 3 3 3 3 4 4 4 4 4
1 1 6 4 1 2 6 8 9 9 9 11 14 15 14 13 12 12 11 11 10 9 8 7 6 6 6 6 5 4 3 3 3 2 2 2 3 3 3 4 3 3 3 4
6 7 7 5 6 6 7 10 10 10 12 14 15 14 14 13 12 11 11 10 9 9 8 7 6 5 6 5 3 2 2 2 1 1 2 3 3 3 3 3 4 4 4 5
6 8 7 7 8 8 9 10 11 12 13 14 15 14 14 12 11 10 10 10 9 8 8 7 6 5 4 3 2 1 1 1 1 1 1 2 3 4 4 5 5 5 5 6
7 9 9 7 8 11 12 13 13 13 13 14 15 15 14 12 11 10 10 8 7 7 7 7 6 5 4 3 1 1 1 1 2 2 2 2 2 4 6 7 7 7 7 6
5 10 8 11 10 12 13 13 14 14 14 14 14 14 13 12 11 10 9 8 7 7 7 6 5 4 3 1 0 1 1 1 1 1 2 2 1 4 5 4 3 2 4 6
8 11 12 14 13 13 13 14 14 14 15 14 14 13 13 12 10 10 9 8 7 6 6 5 3 3 2 1 1 2 2 3 3 2 2 2 2 2 3 4 3 2 1 2
14 15 16 15 14 13 15 15 14 14 14 14 13 13 12 11 10 10 8 7 6 5 4 3 2 2 1 0 1 2 2 1 2 1 2 2 2 2 3 2 2 3 4 2
12 11 15 16 16 15 15 15 15 15 14 14 13 12 12 11 10 9 8 6 5 4 3 2 1 1 1 1 1 2 2 2 2 2 1 2 2 2 3 3 3 3 3 3
12 15 18 18 18 17 16 16 15 15 14 14 12 12 11 10 9 8 7 5 4 3 2 1 1 1 1 1 1 1 1 3 3 1 1 2 2 2 3 3 3 3 4 5
18 19 19 18 18 17 16 15 15 15 14 13 13 12 11 10 9 7 6 4 2 2 2 1 1 1 1 1 3 1 1 4 5 2 2 2 3 3 3 3 3 3 4 6
16 17 18 19 17 17 16 15 15 15 14 13 13 11 10 9 8 6 5 4 4 3 2 1 1 2 1 2 2 2 1 1 1 2 2 3 3 3 3 3 3 3 3 3
15 17 17 17 17 16 16 15 15 14 14 13 12 11 9 8 6 6 5 4 4 4 3 3 0 3 0 2 3 3 1 1 2 2 3 3 0 2 3 3 3 3 3 3
16 17 18 17 17 16 16 15 15 13 13 13 12 10 9 7 6 5 4 2 2 3 4 2 2 1 0 2 4 2 1 1 2 3 2 2 3 3 3 3 3 3 4 4
17 18 18 17 17 16 16 16 14 14 13 12 11 10 9 7 6 4 3 4 5 3 3 3 2 0 1 2 5 1 2 2 3 3 3 3 3 3 3 3 3 3 4 4
17 17 18 17 16 15 15 14 14 14 13 12 11 9 9 8 6 5 2 3 5 2 3 2 3 5 4 6 2 2 3 3 3 3 3 3 3 3 3 3 3 3 4 4
16 16 17 17 17 16 15 14 14 13 12 12 10 9 8 6 4 4 6 5 5 3 2 4 5 2 6 5 1 3 4 3 3 3 3 3 3 3 3 3 3 3 4 4
16 16 16 16 16 16 15 15 14 11 12 11 10 9 7 6 5 3 5 7 4 3 2 7 3 1 8 2 2 3 4 3 3 2 3 3 3 2 2 2 3 3 3 4
16 16 17 17 16 13 14 14 14 13 12 9 10 10 7 5 5 5 5 7 7 5 4 7 5 5 5 1 2 3 3 3 3 2 3 2 2 2 2 2 2 3 3 3
16 14 13 14 12 11 12 12 11 11 10 9 9 8 7 6 6 6 6 7 8 5 3 5 6 6 2 3 3 3 4 5 4 2 2 1 2 2 2 2 2 2 2 3
15 13 12 12 12 12 12 11 11 11 10 10 9 9 8 7 7 7 7 6 6 6 4 3 3 3 3 3 4 3 3 3 3 2 2 2 1 1 2 1 1 1 1 2
Wind_Direction
78 80 83 70 55 43 30 4 348 92 119 137 135 133 130 128 127 124 122 117 113 109 104 101 98 96 94 92 89 89 88 87 87 87 87 86 84 82 80 77 76 70 64 58
108 108 98 72 52 53 49 42 74 96 90 109 115 119 127 131 132 129 127 122 118 115 112 107 103 101 98 93 89 88 87 89 90 91 90 88 87 84 77 69 59 52 46 40
145 156 177 75 35 42 65 52 41 68 101 121 117 118 130 136 136 133 130 128 124 119 114 109 106 104 101 98 96 94 95 95 95 94 90 87 85 78 67 58 50 39 31 27
154 198 170 82 62 60 76 61 55 83 106 115 111 102 100 117 127 129 129 128 125 121 118 114 111 108 107 108 106 102 98 94 93 92 88 80 73 64 52 40 32 24 17 16
240 152 117 131 114 4 47 87 79 109 115 119 119 104 85 98 115 120 122 122 121 123 124 121 119 119 118 114 110 106 100 93 87 84 83 76 64 52 39 23 16 8 20 9
241 239 110 94 72 9 231 129 120 134 139 143 154 134 117 120 119 120 120 122 126 130 128 126 126 129 122 116 108 98 95 92 86 78 65 56 48 27 24 4 356 353 18 6
86 105 89 65 39 235 267 95 133 142 144 145 113 100 122 124 121 122 123 127 132 131 127 128 134 137 126 116 101 93 92 88 79 67 51 32 18 2 349 341 352 349 356 1
260 162 96 56 231 16 67 106 126 127 124 113 107 113 120 123 123 125 127 130 132 130 129 133 139 134 122 108 101 100 95 85 69 34 5 12 353 344 339 329 321 342 354 354
33 57 78 65 69 81 112 120 123 123 124 124 123 125 125 126 128 132 132 133 135 135 134 134 133 126 116 111 105 101 97 75 49 18 6 352 336 333 323 329 339 354 3 6
115 109 105 100 103 108 112 116 122 126 131 132 129 129 129 130 133 133 132 134 139 139 132 128 127 122 112 105 86 74 65 40 344 319 340 12 331 343 355 1 0 2 7 5
122 129 128 121 119 119 117 119 122 125 129 131 131 132 134 133 133 131 131 130 131 127 124 123 122 121 119 110 85 34 7 335 312 330 16 347 32 30 7 38 24 356 1 360
149 160 152 136 134 132 129 128 129 129 128 131 133 134 133 131 131 131 131 131 131 129 127 125 127 124 115 102 359 313 304 325 331 360 21 347 60 117 83 48 78 42 5 344
110 133 121 129 135 134 130 129 132 132 132 132 133 134 133 131 132 132 134 136 135 135 131 132 130 120 100 45 331 332 342 354 340 1 16 13 29 44 113 144 173 173 163 350
121 121 125 135 134 132 130 130 129 129 130 130 132 134 132 133 136 138 138 136 136 140 142 146 150 119 82 33 307 314 319 95 311 10 17 30 43 30 26 36 110 141 162 168
143 138 136 135 133 133 134 135 135 134 133 134 135 136 137 139 139 138 137 137 139 144 136 136 141 109 63 0 335 331 331 27 27 25 37 62 49 36 39 37 27 31 56 120
138 132 136 140 141 143 146 146 143 141 141 141 141 141 141 140 140 139 142 146 152 132 104 94 92 85 36 325 285 232 105 58 328 334 93 85 57 40 37 40 38 33 36 29
145 148 150 149 150 152 153 151 146 145 145 146 144 144 144 145 146 148 150 143 129 108 105 97 83 51 312 291 286 283 110 135 194 233 72 56 46 43 39 36 41 43 53 48
156 156 156 154 154 153 152 150 148 149 149 147 146 150 152 154 153 149 148 145 154 154 142 113 43 324 338 14 334 320 316 131 143 72 72 55 39 49 50 53 54 47 54 96
151 153 154 154 153 152 152 151 152 151 149 150 153 155 154 152 147 147 155 170 182 166 131 104 68 262 343 56 307 240 232 125 119 102 98 117 196 65 59 58 57 47 38 29
148 151 152 152 153 153 152 151 150 149 151 154 155 155 156 152 152 153 163 162 79 71 108 94 222 189 358 87 285 278 119 141 126 115 106 100 81 78 72 61 54 44 31 27
150 151 152 153 153 153 153 153 153 153 155 159 161 160 156 153 156 161 188 139 119 119 137 173 230 25 52 19 254 262 116 126 121 114 106 98 91 83 75 64 54 46 35 27
153 154 154 154 154 154 154 156 157 157 159 164 165 161 158 160 160 155 130 91 122 150 229 159 92 57 10 293 240 109 116 117 112 108 100 92 91 88 78 62 52 41 36 30
155 155 156 157 157 155 156 160 161 162 164 168 168 168 169 164 164 164 146 142 143 163 213 78 72 58 300 264 110 114 113 115 108 108 108 103 89 79 73 64 51 40 35 29
155 157 157 157 156 158 162 164 163 165 169 171 168 167 169 166 164 151 114 120 127 173 126 100 122 266 272 244 123 129 128 128 124 111 108 114 107 92 75 62 55 50 48 40
155 156 157 159 162 164 164 164 164 169 173 172 167 169 181 176 159 148 144 146 155 200 161 142 179 248 254 112 121 126 116 85 65 73 109 105 111 107 90 70 54 48 45 43
156 160 161 167 166 164 165 168 171 173 176 173 171 171 171 163 156 153 164 165 167 200 208 157 165 212 195 122 121 117 123 141 165 175 111 123 106 94 87 71 66 45 47 47
158 158 162 169 169 172 171 173 175 176 178 177 173 170 169 170 170 170 173 171 172 184 184 170 167 166 149 141 131 138 144 145 147 146 150 151 137 133 119 123 64 59 43 58